Time,TemperatureF,DewpointF,PressureIn,WindDirection,WindDirectionDegrees,WindSpeedMPH,WindSpeedGustMPH,Humidity,HourlyPrecipIn,Conditions,Clouds,dailyrainin,SoftwareType,DateUTC
2013-07-29 00:00:00,55.9,55.7,29.64,SE,135,0.7,2.2,99,0.00,,,0.00,pywws,2013-07-28 23:00:00,
2013-07-29 00:05:00,55.6,55.3,29.64,SSW,202,0.0,0.7,99,0.00,,,0.00,pywws,2013-07-28 23:05:00,
2013-07-29 00:10:00,55.4,55.1,29.64,SSW,202,0.0,0.0,99,0.00,,,0.00,pywws,2013-07-28 23:10:00,
2013-07-29 00:15:00,55.2,54.9,29.63,SW,225,0.0,0.7,99,0.00,,,0.00,pywws,2013-07-28 23:15:00,
2013-07-29 00:20:00,55.0,54.8,29.64,SW,225,0.0,0.7,99,0.00,,,0.00,pywws,2013-07-28 23:20:00,
2013-07-29 00:25:00,55.0,54.8,29.63,SW,225,0.0,0.7,99,0.00,,,0.00,pywws,2013-07-28 23:25:00,
2013-07-29 00:30:00,55.0,54.8,29.63,SW,225,0.0,0.0,99,0.00,,,0.00,pywws,2013-07-28 23:30:00,
2013-07-29 00:35:00,54.9,54.6,29.62,SW,225,0.0,0.0,99,0.00,,,0.00,pywws,2013-07-28 23:35:00,
2013-07-29 00:40:00,54.5,54.2,29.63,SW,225,0.0,0.0,99,0.00,,,0.00,pywws,2013-07-28 23:40:00,
2013-07-29 00:45:00,54.5,54.2,29.63,South,180,0.0,0.0,99,0.00,,,0.00,pywws,2013-07-28 23:45:00,
2013-07-29 00:50:00,54.5,54.2,29.63,SE,135,0.0,0.0,99,0.00,,,0.00,pywws,2013-07-28 23:50:00,
2013-07-29 01:00:00,54.3,54.0,29.63,SE,135,0.0,0.0,99,0.00,,,0.00,pywws,2013-07-29 00:00:00,
2013-07-29 01:05:00,54.3,54.0,29.63,SE,135,0.0,0.7,99,0.00,,,0.00,pywws,2013-07-29 00:05:00,
2013-07-29 01:10:00,54.3,54.0,29.63,SE,135,0.0,0.0,99,0.00,,,0.00,pywws,2013-07-29 00:10:00,
2013-07-29 01:15:00,54.5,54.2,29.63,South,180,0.0,0.0,99,0.00,,,0.00,pywws,2013-07-29 00:15:00,
2013-07-29 01:20:00,54.5,54.2,29.63,NW,315,0.0,0.7,99,0.00,,,0.00,pywws,2013-07-29 00:20:00,
2013-07-29 01:25:00,54.1,53.9,29.63,North,0,0.0,0.0,99,0.00,,,0.00,pywws,2013-07-29 00:25:00,
2013-07-29 01:30:00,54.0,53.7,29.63,North,0,0.0,0.0,99,0.00,,,0.00,pywws,2013-07-29 00:30:00,
2013-07-29 01:35:00,54.0,53.7,29.63,SW,225,0.0,0.0,99,0.00,,,0.00,pywws,2013-07-29 00:35:00,
2013-07-29 01:40:00,54.5,54.2,29.63,SE,135,0.0,0.7,99,0.00,,,0.00,pywws,2013-07-29 00:40:00,
2013-07-29 01:45:00,54.3,54.0,29.64,SE,135,0.0,0.0,99,0.00,,,0.00,pywws,2013-07-29 00:45:00,
2013-07-29 01:50:00,54.1,53.9,29.64,North,0,0.0,0.7,99,0.00,,,0.00,pywws,2013-07-29 00:50:00,
2013-07-29 02:00:00,54.1,53.9,29.64,North,0,0.0,0.0,99,0.00,,,0.00,pywws,2013-07-29 01:00:00,
2013-07-29 02:05:00,54.3,54.0,29.64,NW,315,0.0,0.0,99,0.00,,,0.00,pywws,2013-07-29 01:05:00,
2013-07-29 02:10:00,54.3,54.0,29.64,North,0,0.0,0.7,99,0.00,,,0.00,pywws,2013-07-29 01:10:00,
2013-07-29 02:15:00,54.5,54.2,29.64,NE,45,0.7,1.6,99,0.00,,,0.00,pywws,2013-07-29 01:15:00,
2013-07-29 02:20:00,54.3,54.0,29.64,NE,45,0.0,0.7,99,0.00,,,0.00,pywws,2013-07-29 01:20:00,
2013-07-29 02:25:00,54.1,53.9,29.64,NE,45,0.0,0.7,99,0.00,,,0.00,pywws,2013-07-29 01:25:00,
2013-07-29 02:30:00,53.8,53.5,29.64,North,0,0.0,0.0,99,0.00,,,0.00,pywws,2013-07-29 01:30:00,
2013-07-29 02:35:00,53.8,53.5,29.64,North,0,0.0,0.0,99,0.00,,,0.00,pywws,2013-07-29 01:35:00,
2013-07-29 02:40:00,54.1,53.9,29.64,North,0,0.0,0.0,99,0.00,,,0.00,pywws,2013-07-29 01:40:00,
2013-07-29 02:45:00,54.3,54.0,29.64,North,0,0.0,0.0,99,0.00,,,0.00,pywws,2013-07-29 01:45:00,
2013-07-29 02:50:00,54.5,54.2,29.64,NE,45,0.0,0.7,99,0.00,,,0.00,pywws,2013-07-29 01:50:00,
2013-07-29 03:00:00,54.5,54.2,29.64,North,0,0.0,0.0,99,0.00,,,0.00,pywws,2013-07-29 02:00:00,
2013-07-29 03:05:00,54.7,54.4,29.64,North,0,0.7,1.6,99,0.00,,,0.00,pywws,2013-07-29 02:05:00,
2013-07-29 03:10:00,55.0,54.8,29.64,North,0,0.0,0.7,99,0.00,,,0.00,pywws,2013-07-29 02:10:00,
2013-07-29 03:15:00,55.0,54.8,29.64,North,0,0.0,0.0,99,0.00,,,0.00,pywws,2013-07-29 02:15:00,
2013-07-29 03:20:00,55.0,54.8,29.64,North,0,0.0,0.0,99,0.00,,,0.00,pywws,2013-07-29 02:20:00,
2013-07-29 03:25:00,55.2,54.9,29.64,North,0,0.0,0.0,99,0.00,,,0.00,pywws,2013-07-29 02:25:00,
2013-07-29 03:30:00,55.4,55.1,29.64,North,0,0.0,0.0,99,0.00,,,0.00,pywws,2013-07-29 02:30:00,
2013-07-29 03:35:00,55.4,55.1,29.64,North,0,0.0,0.0,99,0.00,,,0.00,pywws,2013-07-29 02:35:00,
2013-07-29 03:40:00,55.4,55.1,29.64,North,0,0.0,0.0,99,0.00,,,0.00,pywws,2013-07-29 02:40:00,
2013-07-29 03:45:00,55.4,55.1,29.64,North,0,0.0,0.0,99,0.00,,,0.00,pywws,2013-07-29 02:45:00,
2013-07-29 03:50:00,55.6,55.3,29.65,North,0,0.0,0.0,99,0.00,,,0.00,pywws,2013-07-29 02:50:00,
2013-07-29 04:01:00,55.4,55.1,29.65,North,0,0.0,0.0,99,0.00,,,0.00,pywws,2013-07-29 03:01:00,
2013-07-29 04:05:00,55.4,55.1,29.65,North,0,0.0,0.0,99,0.00,,,0.00,pywws,2013-07-29 03:05:00,
2013-07-29 04:10:00,55.6,55.3,29.65,North,0,0.0,0.0,99,0.00,,,0.00,pywws,2013-07-29 03:10:00,
2013-07-29 04:15:00,55.8,55.5,29.64,NE,45,0.0,0.7,99,0.00,,,0.00,pywws,2013-07-29 03:15:00,
2013-07-29 04:20:00,55.8,55.5,29.64,North,0,0.0,0.0,99,0.00,,,0.00,pywws,2013-07-29 03:20:00,
2013-07-29 04:25:00,55.8,55.5,29.64,North,0,0.0,0.0,99,0.00,,,0.00,pywws,2013-07-29 03:25:00,
2013-07-29 04:30:00,55.8,55.5,29.64,North,0,0.0,0.0,99,0.00,,,0.00,pywws,2013-07-29 03:30:00,
2013-07-29 04:35:00,55.8,55.5,29.64,North,0,0.0,0.0,99,0.00,,,0.00,pywws,2013-07-29 03:35:00,
2013-07-29 04:40:00,55.8,55.5,29.64,North,0,0.0,0.0,99,0.00,,,0.00,pywws,2013-07-29 03:40:00,
2013-07-29 04:45:00,55.9,55.7,29.64,North,0,0.0,0.0,99,0.00,,,0.00,pywws,2013-07-29 03:45:00,
2013-07-29 04:50:00,55.8,55.5,29.64,NE,45,0.0,0.7,99,0.00,,,0.00,pywws,2013-07-29 03:50:00,
2013-07-29 04:55:00,55.8,55.5,29.64,North,0,0.0,0.0,99,0.00,,,0.00,pywws,2013-07-29 03:55:00,
2013-07-29 05:00:00,55.8,55.5,29.64,North,0,0.0,0.0,99,0.00,,,0.00,pywws,2013-07-29 04:00:00,
2013-07-29 05:05:00,55.9,55.7,29.64,North,0,0.0,0.0,99,0.00,,,0.00,pywws,2013-07-29 04:05:00,
2013-07-29 05:10:00,55.9,55.7,29.64,North,0,0.0,0.0,99,0.00,,,0.00,pywws,2013-07-29 04:10:00,
2013-07-29 05:15:00,55.9,55.7,29.64,North,0,0.0,0.0,99,0.00,,,0.00,pywws,2013-07-29 04:15:00,
2013-07-29 05:20:00,55.9,55.7,29.64,North,0,0.0,0.0,99,0.00,,,0.00,pywws,2013-07-29 04:20:00,
2013-07-29 05:25:00,55.9,55.7,29.64,North,0,0.0,0.0,99,0.00,,,0.00,pywws,2013-07-29 04:25:00,
2013-07-29 05:30:00,56.1,55.8,29.64,North,0,0.0,0.0,99,0.00,,,0.00,pywws,2013-07-29 04:30:00,
2013-07-29 05:35:00,56.3,56.0,29.64,North,0,0.0,0.0,99,0.00,,,0.00,pywws,2013-07-29 04:35:00,
2013-07-29 05:40:00,56.3,56.0,29.64,North,0,0.0,0.0,99,0.00,,,0.00,pywws,2013-07-29 04:40:00,
2013-07-29 05:45:00,56.3,56.0,29.64,North,0,0.0,0.0,99,0.00,,,0.00,pywws,2013-07-29 04:45:00,
2013-07-29 05:50:00,56.3,56.0,29.64,NE,45,0.0,0.7,99,0.00,,,0.00,pywws,2013-07-29 04:50:00,
2013-07-29 06:00:00,56.3,56.0,29.64,North,0,0.0,0.0,99,0.00,,,0.00,pywws,2013-07-29 05:00:00,
2013-07-29 06:05:00,56.5,56.2,29.64,NE,45,0.0,0.0,99,0.00,,,0.00,pywws,2013-07-29 05:05:00,
2013-07-29 06:10:00,56.7,56.4,29.64,NE,45,0.0,0.0,99,0.00,,,0.00,pywws,2013-07-29 05:10:00,
2013-07-29 06:15:00,56.8,56.6,29.64,NE,45,0.0,0.0,99,0.00,,,0.00,pywws,2013-07-29 05:15:00,
2013-07-29 06:20:00,56.8,56.6,29.64,NE,45,0.0,0.7,99,0.00,,,0.00,pywws,2013-07-29 05:20:00,
2013-07-29 06:25:00,57.0,56.7,29.64,North,0,0.0,0.0,99,0.00,,,0.00,pywws,2013-07-29 05:25:00,
2013-07-29 06:30:00,57.2,56.9,29.64,North,0,0.0,0.0,99,0.00,,,0.00,pywws,2013-07-29 05:30:00,
2013-07-29 06:35:00,57.4,57.1,29.64,North,0,0.0,0.0,99,0.00,,,0.00,pywws,2013-07-29 05:35:00,
2013-07-29 06:40:00,57.4,57.1,29.64,North,0,0.0,0.0,99,0.00,,,0.00,pywws,2013-07-29 05:40:00,
2013-07-29 06:45:00,57.9,57.6,29.64,NE,45,0.0,0.0,99,0.00,,,0.00,pywws,2013-07-29 05:45:00,
2013-07-29 06:50:00,58.3,58.0,29.64,North,0,0.0,0.0,99,0.00,,,0.00,pywws,2013-07-29 05:50:00,
2013-07-29 07:00:00,58.5,58.2,29.64,North,0,0.0,0.0,99,0.00,,,0.00,pywws,2013-07-29 06:00:00,
2013-07-29 07:05:00,58.6,58.4,29.64,North,0,0.0,0.0,99,0.00,,,0.00,pywws,2013-07-29 06:05:00,
2013-07-29 07:10:00,58.6,58.4,29.64,North,0,0.0,0.0,99,0.00,,,0.00,pywws,2013-07-29 06:10:00,
2013-07-29 07:15:00,58.6,58.4,29.64,North,0,0.0,0.7,99,0.00,,,0.00,pywws,2013-07-29 06:15:00,
2013-07-29 07:20:00,58.8,58.5,29.64,NNE,22,0.0,0.0,99,0.00,,,0.00,pywws,2013-07-29 06:20:00,
2013-07-29 07:25:00,59.2,58.9,29.64,North,0,0.0,0.0,99,0.00,,,0.00,pywws,2013-07-29 06:25:00,
2013-07-29 07:30:00,59.4,59.1,29.64,NE,45,0.0,0.7,99,0.00,,,0.00,pywws,2013-07-29 06:30:00,
2013-07-29 07:35:00,59.4,59.1,29.63,North,0,0.7,1.6,99,0.00,,,0.00,pywws,2013-07-29 06:35:00,
2013-07-29 07:40:00,59.7,59.4,29.64,North,0,0.0,0.0,99,0.00,,,0.00,pywws,2013-07-29 06:40:00,
2013-07-29 07:45:00,59.9,59.6,29.64,North,0,0.0,0.7,99,0.00,,,0.00,pywws,2013-07-29 06:45:00,
2013-07-29 07:50:00,59.7,59.4,29.64,NE,45,0.0,0.7,99,0.00,,,0.00,pywws,2013-07-29 06:50:00,
2013-07-29 08:00:00,59.7,59.4,29.64,North,0,0.0,0.7,99,0.00,,,0.00,pywws,2013-07-29 07:00:00,
2013-07-29 08:05:00,59.9,59.6,29.64,North,0,0.0,0.0,99,0.00,,,0.00,pywws,2013-07-29 07:05:00,
2013-07-29 08:10:00,60.1,59.8,29.64,North,0,0.0,0.0,99,0.00,,,0.00,pywws,2013-07-29 07:10:00,
2013-07-29 08:15:00,60.3,60.0,29.64,North,0,0.0,0.0,99,0.00,,,0.00,pywws,2013-07-29 07:15:00,
2013-07-29 08:20:00,60.4,60.2,29.64,North,0,0.0,0.0,99,0.00,,,0.00,pywws,2013-07-29 07:20:00,
2013-07-29 08:25:00,60.6,60.3,29.64,North,0,0.0,0.0,99,0.00,,,0.00,pywws,2013-07-29 07:25:00,
2013-07-29 08:30:00,60.6,60.3,29.64,North,0,0.0,0.0,99,0.00,,,0.00,pywws,2013-07-29 07:30:00,
2013-07-29 08:35:00,60.8,60.5,29.64,North,0,0.0,0.0,99,0.00,,,0.00,pywws,2013-07-29 07:35:00,
2013-07-29 08:40:00,61.0,60.7,29.64,North,0,0.0,0.7,99,0.00,,,0.00,pywws,2013-07-29 07:40:00,
2013-07-29 08:45:00,61.3,61.1,29.63,North,0,0.0,0.7,99,0.00,,,0.00,pywws,2013-07-29 07:45:00,
2013-07-29 08:50:00,61.2,60.9,29.63,NE,45,0.0,0.7,99,0.00,,,0.00,pywws,2013-07-29 07:50:00,
2013-07-29 09:00:00,61.7,61.4,29.64,NE,45,0.0,0.7,99,0.00,,,0.00,pywws,2013-07-29 08:00:00,
2013-07-29 09:05:00,62.6,62.3,29.63,West,270,0.0,0.7,99,0.00,,,0.00,pywws,2013-07-29 08:05:00,
2013-07-29 09:10:00,63.5,63.2,29.64,SE,135,0.7,2.2,99,0.00,,,0.00,pywws,2013-07-29 08:10:00,
2013-07-29 09:15:00,63.7,63.4,29.63,SSE,158,0.0,0.7,99,0.00,,,0.00,pywws,2013-07-29 08:15:00,
2013-07-29 09:20:00,64.2,63.9,29.64,SSE,158,0.0,1.6,99,0.00,,,0.00,pywws,2013-07-29 08:20:00,
2013-07-29 09:25:00,65.3,65.0,29.64,NW,315,0.0,1.6,99,0.00,,,0.00,pywws,2013-07-29 08:25:00,
2013-07-29 09:30:00,66.4,66.1,29.64,South,180,0.0,0.7,99,0.00,,,0.00,pywws,2013-07-29 08:30:00,
2013-07-29 09:35:00,65.8,65.6,29.64,SE,135,0.7,3.8,99,0.00,,,0.00,pywws,2013-07-29 08:35:00,
2013-07-29 09:40:00,64.8,64.5,29.64,SE,135,1.6,2.2,99,0.00,,,0.00,pywws,2013-07-29 08:40:00,
2013-07-29 09:45:00,64.4,64.1,29.64,East,90,1.6,3.1,99,0.00,,,0.00,pywws,2013-07-29 08:45:00,
2013-07-29 09:50:00,64.4,64.1,29.64,SE,135,1.6,3.1,99,0.00,,,0.00,pywws,2013-07-29 08:50:00,
2013-07-29 10:00:00,64.8,64.5,29.64,NE,45,0.0,1.6,99,0.00,,,0.00,pywws,2013-07-29 09:00:00,
2013-07-29 10:05:00,65.3,65.0,29.64,South,180,1.6,3.1,99,0.00,,,0.00,pywws,2013-07-29 09:05:00,
2013-07-29 10:10:00,65.3,65.0,29.64,East,90,1.6,2.2,99,0.00,,,0.00,pywws,2013-07-29 09:10:00,
2013-07-29 10:15:00,65.1,64.8,29.64,South,180,0.7,2.2,99,0.00,,,0.00,pywws,2013-07-29 09:15:00,
2013-07-29 10:20:00,64.8,64.5,29.64,East,90,2.2,3.8,99,0.00,,,0.00,pywws,2013-07-29 09:20:00,
2013-07-29 10:25:00,64.0,63.8,29.64,South,180,0.0,2.2,99,0.00,,,0.00,pywws,2013-07-29 09:25:00,
2013-07-29 10:30:00,63.9,63.6,29.65,East,90,1.6,3.1,99,0.00,,,0.00,pywws,2013-07-29 09:30:00,
2013-07-29 10:35:00,63.7,63.4,29.64,SW,225,0.0,0.7,99,0.00,,,0.00,pywws,2013-07-29 09:35:00,
2013-07-29 10:40:00,63.5,63.2,29.64,SE,135,1.6,2.2,99,0.00,,,0.00,pywws,2013-07-29 09:40:00,
2013-07-29 10:45:00,63.3,63.0,29.64,East,90,0.7,3.1,99,0.00,,,0.00,pywws,2013-07-29 09:45:00,
2013-07-29 10:50:00,63.1,62.9,29.65,East,90,0.7,1.6,99,0.00,,,0.00,pywws,2013-07-29 09:50:00,
2013-07-29 11:00:00,63.0,62.7,29.65,SE,135,1.6,3.1,99,0.00,,,0.00,pywws,2013-07-29 10:00:00,
2013-07-29 11:05:00,62.6,62.3,29.65,East,90,0.0,1.6,99,0.00,,,0.00,pywws,2013-07-29 10:05:00,
2013-07-29 11:10:00,62.6,62.3,29.65,SE,135,0.7,2.2,99,0.00,,,0.00,pywws,2013-07-29 10:10:00,
2013-07-29 11:15:00,62.8,62.5,29.65,SE,135,1.6,3.1,99,0.00,,,0.00,pywws,2013-07-29 10:15:00,
2013-07-29 11:20:00,63.1,62.9,29.64,SE,135,0.7,2.2,99,0.00,,,0.00,pywws,2013-07-29 10:20:00,
2013-07-29 11:25:00,63.7,63.4,29.64,NW,315,0.0,0.7,99,0.00,,,0.00,pywws,2013-07-29 10:25:00,
2013-07-29 11:30:00,64.8,64.5,29.64,South,180,0.7,2.2,99,0.00,,,0.00,pywws,2013-07-29 10:30:00,
2013-07-29 11:35:00,65.7,65.4,29.65,SW,225,0.0,1.6,99,0.00,,,0.00,pywws,2013-07-29 10:35:00,
2013-07-29 11:40:00,66.6,66.3,29.64,West,270,0.0,0.7,99,0.00,,,0.00,pywws,2013-07-29 10:40:00,
2013-07-29 11:45:00,67.3,67.0,29.64,North,0,0.0,0.7,99,0.00,,,0.00,pywws,2013-07-29 10:45:00,
2013-07-29 11:50:00,67.8,67.5,29.65,East,90,0.7,1.6,99,0.00,,,0.00,pywws,2013-07-29 10:50:00,
2013-07-29 12:01:00,68.2,67.9,29.64,South,180,1.6,3.1,99,0.00,,,0.00,pywws,2013-07-29 11:01:00,
2013-07-29 12:05:00,69.4,68.5,29.64,South,180,0.7,2.2,97,0.00,,,0.00,pywws,2013-07-29 11:05:00,
2013-07-29 12:10:00,69.1,67.6,29.64,South,180,0.0,1.6,95,0.00,,,0.00,pywws,2013-07-29 11:10:00,
2013-07-29 12:15:00,68.7,67.5,29.64,SE,135,0.0,0.7,96,0.00,,,0.00,pywws,2013-07-29 11:15:00,
2013-07-29 12:20:00,68.2,67.3,29.64,East,90,0.7,3.1,97,0.00,,,0.00,pywws,2013-07-29 11:20:00,
2013-07-29 12:25:00,68.2,67.3,29.64,East,90,0.0,0.7,97,0.00,,,0.00,pywws,2013-07-29 11:25:00,
2013-07-29 12:30:00,68.2,67.3,29.64,SSE,158,1.6,3.8,97,0.00,,,0.00,pywws,2013-07-29 11:30:00,
2013-07-29 12:35:00,68.2,67.6,29.63,SE,135,0.7,5.4,98,0.00,,,0.00,pywws,2013-07-29 11:35:00,
2013-07-29 12:40:00,68.4,67.5,29.63,East,90,0.0,2.2,97,0.00,,,0.00,pywws,2013-07-29 11:40:00,
2013-07-29 12:45:00,68.7,67.8,29.63,West,270,0.7,1.6,97,0.00,,,0.00,pywws,2013-07-29 11:45:00,
2013-07-29 12:50:00,70.3,68.5,29.63,SW,225,0.7,3.8,94,0.00,,,0.00,pywws,2013-07-29 11:50:00,
2013-07-29 13:02:00,71.1,67.3,29.63,East,90,0.7,2.2,88,0.00,,,0.00,pywws,2013-07-29 12:02:00,
2013-07-29 13:05:00,68.9,66.2,29.64,SE,135,0.7,3.1,91,0.00,,,0.00,pywws,2013-07-29 12:05:00,
2013-07-29 13:10:00,68.0,66.5,29.63,East,90,0.0,1.6,95,0.00,,,0.00,pywws,2013-07-29 12:10:00,
2013-07-29 13:15:00,66.7,65.9,29.63,East,90,0.7,3.1,97,0.00,,,0.00,pywws,2013-07-29 12:15:00,
2013-07-29 13:20:00,66.2,65.9,29.64,East,90,0.7,2.2,99,0.00,,,0.00,pywws,2013-07-29 12:20:00,
2013-07-29 13:25:00,65.5,65.2,29.63,SE,135,0.0,1.6,99,0.00,,,0.00,pywws,2013-07-29 12:25:00,
2013-07-29 13:30:00,65.1,64.8,29.63,South,180,0.0,1.6,99,0.00,,,0.00,pywws,2013-07-29 12:30:00,
2013-07-29 13:35:00,65.1,64.8,29.64,East,90,0.7,2.2,99,0.00,,,0.00,pywws,2013-07-29 12:35:00,
2013-07-29 13:40:00,64.9,64.7,29.64,SE,135,0.0,1.6,99,0.00,,,0.00,pywws,2013-07-29 12:40:00,
2013-07-29 13:45:00,64.8,64.5,29.64,East,90,0.0,1.6,99,0.00,,,0.00,pywws,2013-07-29 12:45:00,
2013-07-29 13:50:00,64.6,64.3,29.65,SE,135,0.7,1.6,99,0.00,,,0.00,pywws,2013-07-29 12:50:00,
2013-07-29 14:00:00,64.2,63.9,29.64,North,0,0.0,0.7,99,0.00,,,0.00,pywws,2013-07-29 13:00:00,
2013-07-29 14:05:00,63.1,62.9,29.65,South,180,0.7,2.2,99,0.00,,,0.00,pywws,2013-07-29 13:05:00,
2013-07-29 14:10:00,62.6,62.3,29.65,NW,315,0.0,0.0,99,0.00,,,0.00,pywws,2013-07-29 13:10:00,
2013-07-29 14:15:00,62.4,62.1,29.65,SE,135,0.0,0.7,99,0.00,,,0.00,pywws,2013-07-29 13:15:00,
2013-07-29 14:20:00,62.6,62.3,29.65,NE,45,0.0,0.7,99,0.00,,,0.00,pywws,2013-07-29 13:20:00,
2013-07-29 14:25:00,63.0,62.7,29.65,NE,45,0.0,0.0,99,0.00,,,0.00,pywws,2013-07-29 13:25:00,
2013-07-29 14:30:00,63.9,63.6,29.65,NE,45,0.0,0.7,99,0.00,,,0.00,pywws,2013-07-29 13:30:00,
2013-07-29 14:35:00,64.6,64.3,29.65,North,0,0.0,0.7,99,0.00,,,0.00,pywws,2013-07-29 13:35:00,
2013-07-29 14:40:00,66.4,66.1,29.65,North,0,0.0,1.6,99,0.00,,,0.00,pywws,2013-07-29 13:40:00,
2013-07-29 14:45:00,68.7,68.4,29.64,NW,315,0.0,1.6,99,0.00,,,0.00,pywws,2013-07-29 13:45:00,
2013-07-29 14:50:00,70.5,70.2,29.63,NNE,22,0.0,0.7,99,0.00,,,0.00,pywws,2013-07-29 13:50:00,
2013-07-29 15:01:00,71.1,70.2,29.62,North,0,0.0,1.6,97,0.00,,,0.00,pywws,2013-07-29 14:01:00,
2013-07-29 15:05:00,72.7,70.8,29.62,East,90,0.0,0.7,94,0.00,,,0.00,pywws,2013-07-29 14:05:00,
2013-07-29 15:10:00,73.0,70.6,29.62,East,90,0.0,0.7,92,0.00,,,0.00,pywws,2013-07-29 14:10:00,
2013-07-29 15:15:00,71.6,69.5,29.62,SE,135,0.0,0.7,93,0.00,,,0.00,pywws,2013-07-29 14:15:00,
2013-07-29 15:20:00,71.1,69.6,29.63,SE,135,0.0,1.6,95,0.00,,,0.00,pywws,2013-07-29 14:20:00,
2013-07-29 15:25:00,70.9,69.7,29.63,NW,315,0.7,2.2,96,0.00,,,0.00,pywws,2013-07-29 14:25:00,
2013-07-29 15:30:00,70.7,68.9,29.63,North,0,0.0,0.7,94,0.00,,,0.00,pywws,2013-07-29 14:30:00,
2013-07-29 15:35:00,72.7,71.2,29.63,North,0,0.0,0.7,95,0.00,,,0.00,pywws,2013-07-29 14:35:00,
2013-07-29 15:40:00,74.3,70.8,29.63,North,0,0.0,1.6,89,0.00,,,0.00,pywws,2013-07-29 14:40:00,
2013-07-29 15:45:00,72.9,68.1,29.63,North,0,0.0,1.6,85,0.00,,,0.00,pywws,2013-07-29 14:45:00,
2013-07-29 15:50:00,70.7,67.0,29.64,NW,315,0.0,1.6,88,0.00,,,0.00,pywws,2013-07-29 14:50:00,
2013-07-29 16:00:00,68.9,66.2,29.64,NW,315,0.0,1.6,91,0.00,,,0.00,pywws,2013-07-29 15:00:00,
2013-07-29 16:05:00,66.7,65.9,29.65,North,0,0.7,1.6,97,0.00,,,0.00,pywws,2013-07-29 15:05:00,
2013-07-29 16:10:00,66.2,65.9,29.65,North,0,0.0,1.6,99,0.00,,,0.00,pywws,2013-07-29 15:10:00,
2013-07-29 16:15:00,66.0,65.7,29.65,North,0,0.0,2.2,99,0.00,,,0.00,pywws,2013-07-29 15:15:00,
2013-07-29 16:20:00,66.6,66.3,29.64,West,270,0.0,1.6,99,0.00,,,0.00,pywws,2013-07-29 15:20:00,
2013-07-29 16:25:00,67.1,66.8,29.64,North,0,0.7,1.6,99,0.00,,,0.00,pywws,2013-07-29 15:25:00,
2013-07-29 16:30:00,67.6,67.3,29.65,North,0,0.7,4.5,99,0.00,,,0.00,pywws,2013-07-29 15:30:00,
2013-07-29 16:35:00,67.5,67.2,29.65,North,0,0.7,2.2,99,0.00,,,0.00,pywws,2013-07-29 15:35:00,
2013-07-29 16:40:00,67.1,66.8,29.65,North,0,0.7,2.2,99,0.00,,,0.00,pywws,2013-07-29 15:40:00,
2013-07-29 16:45:00,66.7,66.4,29.65,WNW,292,0.7,2.2,99,0.00,,,0.00,pywws,2013-07-29 15:45:00,
2013-07-29 16:50:00,66.2,65.9,29.65,North,0,0.7,2.2,99,0.00,,,0.00,pywws,2013-07-29 15:50:00,
2013-07-29 17:00:00,65.7,65.4,29.66,NE,45,0.7,3.1,99,0.00,,,0.00,pywws,2013-07-29 16:00:00,
2013-07-29 17:05:00,64.8,64.5,29.67,NW,315,0.7,2.2,99,0.00,,,0.00,pywws,2013-07-29 16:05:00,
2013-07-29 17:10:00,64.6,64.3,29.67,North,0,1.6,3.1,99,0.00,,,0.00,pywws,2013-07-29 16:10:00,
2013-07-29 17:15:00,64.2,63.9,29.68,North,0,0.0,1.6,99,0.00,,,0.00,pywws,2013-07-29 16:15:00,
2013-07-29 17:20:00,63.9,63.6,29.67,South,180,0.7,1.6,99,0.00,,,0.00,pywws,2013-07-29 16:20:00,
2013-07-29 17:25:00,63.3,63.0,29.68,NW,315,0.7,1.6,99,0.00,,,0.00,pywws,2013-07-29 16:25:00,
2013-07-29 17:30:00,62.8,62.5,29.68,North,0,0.0,1.6,99,0.00,,,0.00,pywws,2013-07-29 16:30:00,
2013-07-29 17:35:00,62.1,61.8,29.67,North,0,0.0,2.2,99,0.00,,,0.00,pywws,2013-07-29 16:35:00,
2013-07-29 17:40:00,61.3,61.1,29.67,North,0,0.7,1.6,99,0.00,,,0.00,pywws,2013-07-29 16:40:00,
2013-07-29 17:45:00,60.8,60.5,29.67,North,0,0.0,1.6,99,0.00,,,0.00,pywws,2013-07-29 16:45:00,
2013-07-29 17:50:00,60.4,60.2,29.67,North,0,0.7,1.6,99,0.00,,,0.00,pywws,2013-07-29 16:50:00,
2013-07-29 18:00:00,60.4,60.2,29.67,NE,45,0.0,0.7,99,0.00,,,0.00,pywws,2013-07-29 17:00:00,
2013-07-29 18:05:00,61.5,61.2,29.67,NE,45,0.0,0.7,99,0.00,,,0.00,pywws,2013-07-29 17:05:00,
2013-07-29 18:10:00,62.2,62.0,29.68,NNE,22,0.7,2.2,99,0.00,,,0.00,pywws,2013-07-29 17:10:00,
2013-07-29 18:15:00,62.6,62.3,29.68,North,0,0.7,1.6,99,0.00,,,0.00,pywws,2013-07-29 17:15:00,
2013-07-29 18:20:00,62.6,62.3,29.68,NE,45,1.6,3.1,99,0.00,,,0.00,pywws,2013-07-29 17:20:00,
2013-07-29 18:25:00,62.2,62.0,29.69,North,0,0.7,3.1,99,0.00,,,0.00,pywws,2013-07-29 17:25:00,
2013-07-29 18:30:00,61.7,61.4,29.68,North,0,0.7,3.1,99,0.00,,,0.00,pywws,2013-07-29 17:30:00,
2013-07-29 18:35:00,61.2,60.9,29.68,NW,315,0.7,2.2,99,0.00,,,0.00,pywws,2013-07-29 17:35:00,
2013-07-29 18:40:00,60.8,60.5,29.68,North,0,1.6,2.2,99,0.00,,,0.00,pywws,2013-07-29 17:40:00,
2013-07-29 18:45:00,60.6,60.3,29.68,North,0,0.0,3.1,99,0.00,,,0.00,pywws,2013-07-29 17:45:00,
2013-07-29 18:50:00,60.6,60.3,29.69,North,0,0.7,2.2,99,0.00,,,0.00,pywws,2013-07-29 17:50:00,
2013-07-29 19:00:00,60.6,60.3,29.68,North,0,0.7,2.2,99,0.00,,,0.00,pywws,2013-07-29 18:00:00,
2013-07-29 19:05:00,60.3,60.0,29.69,North,0,0.0,1.6,99,0.00,,,0.00,pywws,2013-07-29 18:05:00,
2013-07-29 19:10:00,60.3,60.0,29.69,South,180,0.0,0.7,99,0.00,,,0.00,pywws,2013-07-29 18:10:00,
2013-07-29 19:15:00,60.4,60.2,29.69,North,0,0.0,1.6,99,0.00,,,0.00,pywws,2013-07-29 18:15:00,
2013-07-29 19:20:00,60.4,60.2,29.69,North,0,0.0,0.0,99,0.00,,,0.00,pywws,2013-07-29 18:20:00,
2013-07-29 19:25:00,60.6,60.3,29.69,North,0,0.7,1.6,99,0.00,,,0.00,pywws,2013-07-29 18:25:00,
2013-07-29 19:30:00,60.8,60.5,29.69,North,0,0.7,3.1,99,0.00,,,0.00,pywws,2013-07-29 18:30:00,
2013-07-29 19:35:00,60.6,60.3,29.69,East,90,0.0,1.6,99,0.00,,,0.00,pywws,2013-07-29 18:35:00,
2013-07-29 19:40:00,60.4,60.2,29.69,NE,45,2.2,3.8,99,0.00,,,0.00,pywws,2013-07-29 18:40:00,
2013-07-29 19:45:00,60.1,59.8,29.69,North,0,0.7,3.1,99,0.00,,,0.00,pywws,2013-07-29 18:45:00,
2013-07-29 19:50:00,59.9,59.6,29.69,North,0,0.7,1.6,99,0.00,,,0.00,pywws,2013-07-29 18:50:00,
2013-07-29 20:00:00,59.9,59.6,29.69,SW,225,0.7,3.1,99,0.00,,,0.00,pywws,2013-07-29 19:00:00,
2013-07-29 20:05:00,59.7,59.4,29.69,North,0,0.0,1.6,99,0.00,,,0.00,pywws,2013-07-29 19:05:00,
2013-07-29 20:10:00,59.9,59.6,29.70,North,0,0.7,3.1,99,0.00,,,0.00,pywws,2013-07-29 19:10:00,
2013-07-29 20:15:00,59.9,59.6,29.69,North,0,0.0,0.7,99,0.00,,,0.00,pywws,2013-07-29 19:15:00,
2013-07-29 20:20:00,59.7,59.4,29.69,North,0,0.0,1.6,99,0.00,,,0.00,pywws,2013-07-29 19:20:00,
2013-07-29 20:25:00,59.7,59.4,29.69,North,0,0.0,1.6,99,0.00,,,0.00,pywws,2013-07-29 19:25:00,
2013-07-29 20:30:00,59.5,59.3,29.69,North,0,0.0,1.6,99,0.00,,,0.00,pywws,2013-07-29 19:30:00,
2013-07-29 20:35:00,59.4,59.1,29.70,North,0,0.7,1.6,99,0.00,,,0.00,pywws,2013-07-29 19:35:00,
2013-07-29 20:40:00,59.4,59.1,29.70,NE,45,0.7,1.6,99,0.00,,,0.00,pywws,2013-07-29 19:40:00,
2013-07-29 20:45:00,59.4,59.1,29.70,East,90,0.7,1.6,99,0.00,,,0.00,pywws,2013-07-29 19:45:00,
2013-07-29 20:50:00,59.2,58.9,29.70,North,0,1.6,3.1,99,0.00,,,0.00,pywws,2013-07-29 19:50:00,
2013-07-29 21:00:00,59.2,58.9,29.70,North,0,0.7,1.6,99,0.00,,,0.00,pywws,2013-07-29 20:00:00,
2013-07-29 21:05:00,59.2,58.9,29.70,North,0,0.0,1.6,99,0.00,,,0.00,pywws,2013-07-29 20:05:00,
2013-07-29 21:10:00,59.2,58.9,29.70,North,0,0.7,1.6,99,0.00,,,0.00,pywws,2013-07-29 20:10:00,
2013-07-29 21:15:00,59.2,58.9,29.70,North,0,0.7,3.8,99,0.00,,,0.00,pywws,2013-07-29 20:15:00,
2013-07-29 21:20:00,59.2,58.9,29.70,North,0,0.0,1.6,99,0.00,,,0.00,pywws,2013-07-29 20:20:00,
2013-07-29 21:25:00,59.2,58.9,29.70,North,0,0.0,0.7,99,0.00,,,0.00,pywws,2013-07-29 20:25:00,
2013-07-29 21:30:00,59.0,58.7,29.70,North,0,0.0,0.7,99,0.00,,,0.00,pywws,2013-07-29 20:30:00,
2013-07-29 21:35:00,58.8,58.5,29.71,North,0,0.7,1.6,99,0.00,,,0.00,pywws,2013-07-29 20:35:00,
2013-07-29 21:40:00,58.8,58.5,29.70,North,0,0.0,2.2,99,0.00,,,0.00,pywws,2013-07-29 20:40:00,
2013-07-29 21:45:00,58.8,58.5,29.71,NW,315,0.0,1.6,99,0.00,,,0.00,pywws,2013-07-29 20:45:00,
2013-07-29 21:50:00,58.8,58.5,29.71,North,0,0.7,2.2,99,0.00,,,0.00,pywws,2013-07-29 20:50:00,
2013-07-29 22:01:00,58.6,58.4,29.71,North,0,0.7,2.2,99,0.00,,,0.00,pywws,2013-07-29 21:01:00,
2013-07-29 22:05:00,58.3,58.0,29.71,North,0,0.0,1.6,99,0.00,,,0.00,pywws,2013-07-29 21:05:00,
2013-07-29 22:10:00,57.9,57.6,29.72,North,0,0.7,2.2,99,0.00,,,0.00,pywws,2013-07-29 21:10:00,
2013-07-29 22:15:00,57.7,57.5,29.72,North,0,0.0,2.2,99,0.00,,,0.00,pywws,2013-07-29 21:15:00,
2013-07-29 22:20:00,57.7,57.5,29.72,NW,315,0.7,2.2,99,0.00,,,0.00,pywws,2013-07-29 21:20:00,
2013-07-29 22:25:00,57.6,57.3,29.71,NW,315,0.7,2.2,99,0.00,,,0.00,pywws,2013-07-29 21:25:00,
2013-07-29 22:30:00,57.4,57.1,29.72,North,0,0.7,2.2,99,0.00,,,0.00,pywws,2013-07-29 21:30:00,
2013-07-29 22:35:00,57.2,56.9,29.72,NNE,22,0.7,2.2,99,0.00,,,0.00,pywws,2013-07-29 21:35:00,
2013-07-29 22:40:00,57.2,56.9,29.72,North,0,0.7,1.6,99,0.00,,,0.00,pywws,2013-07-29 21:40:00,
2013-07-29 22:45:00,57.0,56.7,29.72,North,0,0.7,1.6,99,0.00,,,0.00,pywws,2013-07-29 21:45:00,
2013-07-29 22:50:00,57.0,56.7,29.73,North,0,0.7,2.2,99,0.00,,,0.00,pywws,2013-07-29 21:50:00,
2013-07-29 23:00:00,57.0,56.7,29.73,North,0,0.7,3.1,99,0.00,,,0.00,pywws,2013-07-29 22:00:00,
2013-07-29 23:05:00,57.2,56.9,29.73,NW,315,0.7,2.2,99,0.00,,,0.00,pywws,2013-07-29 22:05:00,
2013-07-29 23:10:00,57.2,56.9,29.73,NNW,338,0.0,1.6,99,0.00,,,0.00,pywws,2013-07-29 22:10:00,
2013-07-29 23:15:00,57.0,56.7,29.73,NW,315,0.7,2.2,99,0.00,,,0.00,pywws,2013-07-29 22:15:00,
2013-07-29 23:20:00,57.0,56.7,29.73,North,0,0.7,3.1,99,0.00,,,0.00,pywws,2013-07-29 22:20:00,
2013-07-29 23:25:00,57.0,56.7,29.74,North,0,0.7,1.6,99,0.00,,,0.00,pywws,2013-07-29 22:25:00,
2013-07-29 23:30:00,57.0,56.7,29.74,North,0,0.7,2.2,99,0.00,,,0.00,pywws,2013-07-29 22:30:00,
2013-07-29 23:35:00,57.0,56.7,29.74,North,0,0.7,2.2,99,0.00,,,0.00,pywws,2013-07-29 22:35:00,
2013-07-29 23:40:00,57.0,56.7,29.74,North,0,0.7,2.2,99,0.00,,,0.00,pywws,2013-07-29 22:40:00,
2013-07-29 23:45:00,57.2,56.9,29.74,North,0,0.7,2.2,99,0.00,,,0.00,pywws,2013-07-29 22:45:00,
2013-07-29 23:50:00,57.0,56.7,29.74,North,0,0.7,1.6,99,0.00,,,0.00,pywws,2013-07-29 22:50:00,